Weather History for Garden City, KS

Change the Weather History Date:

Sunday, May 26, 2013

  Actual Average Record
Temperature  
Mean Temperature 81 °F 66 °F  
Max Temperature 98 °F 79 °F 106 °F (1953)
Min Temperature 64 °F 54 °F 33 °F (1992)
Degree Days  
Heating Degree Days 0 2  
Month to date heating degree days 145 120  
Since 1 July heating degree days 5199 5182  
Cooling Degree Days 16 4  
Month to date cooling degree days 99 55  
Year to date cooling degree days 103 67  
Growing Degree Days 30 (Base 50)    
Moisture  
Dew Point 53 °F    
Average Humidity 49    
Maximum Humidity 84    
Minimum Humidity 14    
Precipitation  
Precipitation 0.00 in 0.11 in 0.55 in (1964)
Month to date precipitation 0.68 2.33  
Year to date precipitation 1.56 6.39  
Sea Level Pressure  
Sea Level Pressure 29.72 in    
Wind  
Wind Speed 19 mph (South)    
Max Wind Speed 39 mph    
Max Gust Speed 47 mph    
Visibility 10 miles    
Events Thunderstorm    
T = Trace of Precipitation, MM = Missing Value Source: NWS Daily Summary

Daily Weather History Graph

Daily Weather History Graph

Search for Another Location

Airport:

Trip Planner

Search our weather history database for the weather conditions in past years. The results will help you decide how hot, cold, wet, or windy it might be!

Date:

Astronomy

May. 26, 2013 Rise Set
Actual Time 6:24 AM CDT 8:55 PM CDT
Civil Twilight 5:54 AM CDT 9:26 PM CDT
Nautical Twilight 5:16 AM CDT 10:03 PM CDT
Astronomical Twilight 4:35 AM CDT 10:45 PM CDT
Moon 10:45 PM CDT (5/26) 7:55 AM CDT (5/26)
Length of Visible Light 15h 31m
Length of Day
14h 30m
Waning Gibbous, 96% of the Moon is Illuminated
May 26
Waning Gibbous
May 31
Last Quarter
Jun 8
New
Jun 16
First Quarter
Jun 23
Full

Hourly Weather History & Observations

Time (CDT) Temp. Heat Index Dew Point Humidity Pressure Visibility Wind Dir Wind Speed Gust Speed Precip Events Conditions
12:54 AM 72.0 °F - 61.0 °F 68% 29.80 in 10.0 mi South 34.5 mph 44.9 mph N/A   Clear
1:54 AM 71.1 °F - 60.1 °F 68% 29.79 in 10.0 mi SSE 17.3 mph 31.1 mph N/A   Clear
2:40 AM 71.6 °F - 60.8 °F 69% 29.92 in 10.0 mi SSW 21.9 mph 27.6 mph N/A Thunderstorm Clear
2:54 AM 71.1 °F - 60.1 °F 68% 29.78 in 10.0 mi SSW 21.9 mph 28.8 mph N/A   Clear
3:54 AM 73.0 °F - 57.9 °F 59% 29.80 in 10.0 mi South 17.3 mph 28.8 mph N/A   Mostly Cloudy
4:54 AM 69.1 °F - 60.1 °F 73% 29.79 in 10.0 mi SSE 17.3 mph - N/A   Clear
5:54 AM 66.0 °F - 60.1 °F 81% 29.78 in 10.0 mi South 11.5 mph - N/A   Clear
6:54 AM 64.9 °F - 59.0 °F 81% 29.81 in 10.0 mi South 11.5 mph - N/A   Clear
7:54 AM 68.0 °F - 61.0 °F 78% 29.79 in 10.0 mi South 12.7 mph - N/A   Clear
8:54 AM 73.0 °F - 61.0 °F 66% 29.77 in 10.0 mi South 18.4 mph - N/A   Clear
9:54 AM 75.9 °F - 59.0 °F 56% 29.76 in 10.0 mi South 24.2 mph 33.4 mph N/A   Clear
10:54 AM 82.9 °F 82.0 °F 55.0 °F 38% 29.75 in 10.0 mi South 23.0 mph 28.8 mph N/A   Clear
11:54 AM 88.0 °F - 48.9 °F 26% 29.74 in 10.0 mi South 24.2 mph 32.2 mph N/A   Clear
12:54 PM 91.9 °F - 46.9 °F 21% 29.72 in 10.0 mi South 23.0 mph 29.9 mph N/A   Clear
1:54 PM 95.0 °F - 46.0 °F 19% 29.70 in 10.0 mi SSW 25.3 mph 33.4 mph N/A   Clear
2:54 PM 95.0 °F - 45.0 °F 18% 29.68 in 10.0 mi South 26.5 mph 32.2 mph N/A   Clear
3:54 PM 97.0 °F - 45.0 °F 17% 29.67 in 10.0 mi South 21.9 mph 36.8 mph N/A   Clear
4:54 PM 97.0 °F - 43.0 °F 16% 29.64 in 10.0 mi South 19.6 mph 29.9 mph N/A   Clear
5:54 PM 97.0 °F - 41.0 °F 14% 29.63 in 10.0 mi South 20.7 mph 29.9 mph N/A   Clear
6:54 PM 93.9 °F - 37.0 °F 14% 29.61 in 10.0 mi South 13.8 mph - N/A   Clear
7:54 PM 91.9 °F - 39.9 °F 16% 29.61 in 10.0 mi South 12.7 mph - N/A   Clear
8:54 PM 86.0 °F 84.2 °F 54.0 °F 33% 29.62 in 10.0 mi SSE 20.7 mph 31.1 mph N/A   Clear
9:54 PM 82.0 °F 81.3 °F 54.0 °F 38% 29.65 in 10.0 mi SSE 21.9 mph 33.4 mph N/A   Clear
10:54 PM 80.1 °F 80.0 °F 54.0 °F 40% 29.65 in 10.0 mi SSE 19.6 mph 29.9 mph N/A   Clear
11:54 PM 77.0 °F - 57.0 °F 50% 29.64 in 10.0 mi SSE 19.6 mph 27.6 mph N/A   Clear